Volver al catálogo

STARLINK-35161

ActivoComunicacionesVLEO
NORAD 65936·PAYLOAD·🇺🇸 United States

Lanzado Oct 8, 2025 desde Vandenberg Space Force Base

Loading…

Próximos Pases (próximas 24 horas)

TLE

ActualizadoSource: CelesTrak SupGP

Época: Sep 14, 2026, 21:34 UTC

1 65936C 25225AC  26257.89909722 -.00001943  00000+0 -57418-4 0  2577
2 65936  53.1592   3.8538 0001214  85.3187  98.1547 15.34378124    16

Sigue STARLINK-35161 en tiempo real con AllMySat

Download on the App Store